Location: Chuathbaluk
(61.5726°N, 159.2454°W)
Time: 22:35:24
(UTC+00:00)

AAUSAT CUBESAT 2 - Visible Passes

Search period start: 23 January 2021 00:00
Search period end: 02 February 2021 00:00
Orbit: 572 x 590 km, 97.5° (Epoch: 23 January)

Date Brightness Start Highest point End Pass type
(mag) Time Alt. Az. Time Alt. Az. Time Alt. Az.
23 Jan ? 04:04:04 10° SSW 04:07:44 31° W 04:11:25 10° NNW visible
23 Jan ? 15:34:23 10° NE 15:37:45 23° E 15:41:05 10° SE visible
23 Jan ? 17:09:26 10° NNE 17:13:33 70° WNW 17:17:39 10° SSW visible
24 Jan ? 04:09:31 10° SSW 04:13:05 28° W 04:16:41 10° NNW visible
24 Jan ? 15:39:38 10° NE 15:43:07 25° E 15:46:35 10° SSE visible
24 Jan ? 17:14:45 10° NNE 17:18:51 64° WNW 17:22:57 10° SSW visible
25 Jan ? 04:14:59 10° SSW 04:18:27 26° W 04:21:57 10° NNW visible
25 Jan ? 15:44:53 10° NNE 15:48:28 28° E 15:52:03 10° SSE visible
25 Jan ? 17:20:05 10° NNE 17:24:09 58° WNW 17:28:13 10° SW visible
26 Jan ? 04:20:27 10° SW 04:23:49 24° W 04:27:11 10° NW visible
26 Jan ? 15:50:09 10° NNE 15:53:50 30° E 15:57:31 10° SSE visible
26 Jan ? 17:25:25 10° N 17:29:27 53° WNW 17:33:29 10° SW visible
27 Jan ? 04:25:58 10° SW 04:29:11 22° W 04:32:26 10° NW visible
27 Jan ? 15:55:24 10° NNE 15:59:11 33° E 16:02:58 10° SSE visible
27 Jan ? 17:30:45 10° N 17:34:45 49° WNW 17:38:45 10° SW visible
28 Jan ? 04:31:28 10° SW 04:34:33 20° W 04:37:39 10° NW visible
28 Jan ? 16:00:41 10° NNE 16:04:32 36° E 16:08:23 10° SSE visible
28 Jan ? 17:36:05 10° N 17:40:02 45° WNW 17:43:59 10° SW visible
29 Jan ? 04:37:01 10° SW 04:39:55 19° W 04:42:51 10° NW visible
29 Jan ? 16:05:57 10° NNE 16:09:53 40° E 16:13:48 10° SSE visible
29 Jan ? 17:41:24 10° N 17:45:19 41° WNW 17:49:14 10° SW visible
30 Jan ? 04:42:34 10° SW 04:45:18 17° W 04:48:03 10° NW visible
30 Jan ? 16:11:14 10° NNE 16:15:14 44° E 16:19:12 10° S visible
30 Jan ? 17:46:45 10° N 17:50:36 38° WNW 17:54:27 10° SW visible
31 Jan ? 04:48:10 10° WSW 04:50:40 16° W 04:53:13 10° NW visible
31 Jan ? 14:43:51 10° ENE 14:44:08 10° ENE 14:44:26 10° E visible
31 Jan ? 16:16:31 10° NNE 16:20:34 48° E 16:24:36 10° S visible
31 Jan ? 17:52:06 10° N 17:55:53 35° WNW 17:59:40 10° SW visible
01 Feb ? 04:53:47 10° WSW 04:56:04 14° W 04:58:21 10° NW visible
01 Feb ? 14:48:17 10° ENE 14:49:33 11° E 14:50:48 10° E visible
01 Feb ? 16:21:48 10° NNE 16:25:53 53° E 16:29:58 10° S visible
01 Feb ? 17:57:26 10° N 18:01:09 32° WNW 18:04:52 10° WSW visible
